EHI
4 2 1 0 0 0 1 0 0 0 0 0 0 0 0 0 0 0 0 0 0 0 0 0 0 0 0 0 0 0 0 0 0 0 0 0 0 0 0 0 0 0 0
3 2 1 1 1 1 1 0 0 0 0 0 0 0 0 0 0 0 0 0 0 0 0 0 0 0 0 0 0 0 0 0 0 0 0 0 0 0 0 0 0 0 0
2 1 2 3 2 1 1 0 0 1 1 1 0 0 0 0 0 0 0 0 0 0 0 0 0 0 0 0 0 0 0 0 0 0 0 0 0 0 0 0 0 0 0
1 1 3 4 4 3 1 1 1 1 2 1 0 0 0 0 0 0 0 0 0 0 0 0 0 0 0 0 0 1 0 0 0 0 0 0 0 0 0 0 0 0 0
2 1 3 5 5 5 4 3 3 2 2 2 1 1 1 0 0 0 0 0 0 0 0 0 0 0 0 0 0 0 0 0 0 0 0 0 0 0 0 0 0 0 0
3 3 3 5 7 7 7 6 5 3 2 3 3 3 2 1 0 0 0 0 0 0 0 0 0 0 0 0 1 1 1 0 0 0 0 0 0 0 0 0 0 0 0
5 5 6 8 10 11 11 10 8 5 4 4 4 4 3 1 0 0 0 0 0 0 0 0 0 0 0 0 1 2 2 1 1 1 1 1 1 0 0 0 0 0 0
7 7 10 12 14 15 15 14 12 10 8 8 6 5 3 1 0 0 0 0 0 0 0 0 0 0 0 0 1 3 3 3 2 2 2 2 2 1 0 0 0 0 0
7 8 10 14 17 18 17 16 16 14 12 10 8 5 3 1 0 0 0 0 0 0 0 0 0 0 0 0 1 2 3 3 3 3 3 3 3 2 1 1 0 0 0
9 9 10 13 17 18 17 17 18 17 14 9 7 5 3 1 1 0 0 0 0 0 0 0 0 0 0 0 1 3 3 3 3 2 2 2 2 1 0 0 0 0 0
9 10 9 11 15 17 17 18 19 17 13 11 8 6 4 3 2 1 0 0 0 0 1 1 1 1 1 2 3 4 4 3 2 1 1 1 1 0 0 0 0 0 0
7 8 8 9 13 17 18 19 19 16 14 13 11 9 7 6 5 3 2 1 0 0 1 2 2 3 3 4 5 5 5 5 3 2 1 1 0 0 0 0 0 0 0
4 6 7 8 11 15 18 19 17 15 14 13 11 10 10 10 9 6 3 1 0 1 2 3 3 4 6 6 5 5 6 6 4 4 3 2 1 1 1 0 0 0 0
3 5 6 8 10 14 17 17 14 13 14 12 10 10 10 11 10 7 4 2 2 2 3 4 4 5 7 7 6 6 7 6 5 5 5 4 3 2 2 1 1 0 0
2 3 5 8 11 14 16 15 14 14 14 14 14 13 12 11 9 7 4 4 4 4 4 5 5 6 7 7 7 8 9 7 6 6 6 5 4 3 2 2 1 0 0
0 1 4 8 14 16 16 15 15 16 17 18 17 16 16 14 10 8 6 6 7 6 6 7 7 7 7 6 5 7 10 9 8 6 5 4 3 3 2 1 1 0 0
2 2 4 10 15 17 18 19 19 18 19 19 18 18 19 17 13 10 9 9 10 9 9 9 10 9 8 5 3 4 8 9 8 6 4 3 3 3 3 2 1 1 1
6 5 7 11 16 18 19 21 21 19 18 19 18 17 18 19 16 14 12 12 13 13 12 12 11 11 10 6 2 1 4 7 7 6 5 4 3 3 3 3 3 2 2
11 10 10 13 16 17 20 22 20 17 17 18 17 17 18 19 18 17 16 16 15 15 15 13 11 11 10 6 2 1 4 6 6 5 4 3 3 3 3 3 3 3 3
15 15 15 16 17 18 20 21 20 18 18 19 18 18 18 18 18 18 19 17 16 15 15 13 10 9 8 5 2 2 4 6 6 5 3 2 2 2 2 3 3 3 3
18 19 20 20 20 20 21 22 21 20 20 20 19 17 16 16 16 17 17 15 13 12 12 10 8 7 6 5 2 2 4 5 4 4 3 2 1 1 1 1 2 2 2
20 20 21 21 21 21 21 21 19 19 20 20 19 16 15 14 13 14 14 12 11 10 8 6 6 6 5 3 1 1 1 2 2 3 3 2 1 0 0 0 1 1 1
21 19 19 18 17 17 17 16 15 16 18 20 19 18 14 12 11 12 12 11 10 8 6 6 7 8 6 3 1 0 0 0 1 1 1 1 0 0 0 0 0 0 0
17 17 17 16 14 13 14 13 13 14 17 19 19 18 14 11 10 11 12 11 9 8 7 7 7 8 8 5 2 0 0 0 0 0 0 0 0 0 0 0 0 0 0
12 14 16 16 15 15 15 16 15 15 16 17 18 17 15 12 10 9 9 8 7 6 7 7 7 8 8 6 3 0 0 0 0 0 0 0 0 0 0 0 0 0 0
11 13 16 16 16 17 18 18 16 16 17 17 17 18 17 13 9 7 6 6 5 5 6 7 7 7 7 5 2 0 0 0 0 0 0 0 0 0 0 0 0 0 0
Wind_Speed
6 6 6 6 5 4 4 4 4 3 3 2 2 1 0 1 1 1 1 1 1 1 1 0 1 1 1 0 1 1 2 1 1 2 2 2 2 2 1 0 1 1 1
5 6 6 6 6 6 5 5 5 4 4 2 2 2 1 1 0 1 1 1 1 1 0 1 0 0 1 1 1 1 1 1 1 1 2 2 3 3 2 1 0 0 1
9 8 7 7 6 6 7 6 5 5 4 3 2 2 2 2 2 2 2 2 1 1 0 0 0 0 1 0 1 1 2 1 0 1 2 2 1 1 2 2 2 1 0
8 8 8 7 8 8 6 5 5 5 4 4 3 3 2 1 1 0 1 2 2 1 0 0 0 1 0 0 1 1 1 1 0 0 0 1 2 2 0 2 2 1 1
9 9 10 9 8 7 6 5 5 4 4 4 4 3 2 1 1 1 1 1 2 2 1 1 0 0 0 0 1 1 0 1 1 1 1 1 1 1 1 1 1 1 1
10 9 8 7 6 6 6 5 5 5 5 5 4 4 4 3 2 0 1 1 1 2 2 1 1 1 0 0 0 0 0 0 1 1 1 1 1 2 2 2 1 1 1
9 8 8 8 8 8 7 6 7 6 5 6 5 5 4 4 3 2 1 0 1 1 2 1 1 1 1 1 1 0 0 0 1 1 1 1 1 2 2 2 1 0 1
9 9 9 8 8 8 8 8 8 7 6 6 6 4 4 3 2 2 2 1 1 1 1 1 1 1 1 1 1 1 1 1 0 0 1 1 1 2 2 2 2 1 0
9 9 8 8 8 8 8 9 8 7 6 6 5 5 4 3 3 2 2 1 1 1 1 1 1 1 2 1 1 1 1 1 1 1 0 0 0 1 1 2 2 2 2
7 7 8 8 8 8 8 7 7 7 7 6 6 5 4 4 3 2 2 2 1 0 1 1 1 1 1 1 1 1 1 1 1 1 1 1 0 0 1 1 1 1 2
7 7 7 7 6 5 6 6 6 5 5 5 5 4 4 4 3 3 3 2 1 1 1 1 1 1 1 2 2 1 1 2 2 2 1 1 1 1 1 1 1 1 1
5 6 6 6 5 6 5 5 5 5 5 5 5 4 4 4 3 3 3 2 2 2 2 1 2 2 2 2 2 1 1 1 1 1 1 1 1 1 1 1 1 1 1
5 5 5 6 6 6 6 6 6 5 5 6 6 4 4 4 4 3 3 2 2 2 2 2 2 1 1 1 1 1 1 1 1 1 1 1 1 1 1 1 1 1 2
5 5 5 5 5 5 5 6 5 5 5 6 6 5 4 4 4 3 3 3 3 3 2 2 2 1 1 1 1 1 1 1 1 1 1 1 1 0 1 1 2 2 2
4 5 6 5 5 4 4 5 5 5 5 6 6 5 4 3 3 3 3 3 3 3 2 2 1 1 1 1 1 1 2 2 1 2 1 1 2 2 1 1 2 3 2
5 5 5 5 6 6 6 5 5 5 5 6 5 4 4 3 3 3 3 3 3 2 2 2 2 1 1 2 3 3 2 2 2 1 2 2 3 4 4 4 4 4 3
4 5 6 6 6 6 6 6 6 5 5 5 5 5 5 4 3 4 4 4 3 3 2 2 2 2 1 2 4 4 3 2 1 1 1 2 3 4 3 5 6 5 5
3 3 4 4 4 4 5 5 5 6 6 5 4 4 5 4 4 4 4 3 3 3 2 2 2 2 1 3 3 5 3 2 2 1 1 2 2 3 4 4 5 4 4
3 3 4 4 5 5 6 6 5 6 6 5 5 5 5 5 4 4 4 3 3 3 2 2 2 2 1 3 4 5 3 2 2 1 2 2 2 3 5 5 4 4 3
2 3 3 4 4 4 6 7 6 5 5 5 5 5 5 6 5 5 4 3 3 3 3 2 1 2 1 2 4 5 3 3 2 1 2 2 3 3 4 4 3 3 2
3 3 5 5 4 4 6 6 6 6 5 4 4 4 4 5 5 4 3 4 3 3 2 2 1 1 1 2 3 4 3 3 3 2 1 1 3 4 3 3 2 2 2
3 4 5 4 3 4 5 5 4 3 3 3 4 4 4 3 3 4 3 3 4 3 2 2 1 0 0 1 2 4 4 4 4 2 1 1 3 3 2 2 3 3 4
2 3 5 4 3 4 5 5 3 3 4 4 4 4 3 3 4 4 4 4 3 3 3 2 2 1 0 1 2 3 3 4 3 2 3 3 3 2 2 2 4 4 3
2 2 4 4 3 3 4 4 4 4 5 4 4 3 4 3 3 3 4 4 4 4 4 3 3 2 1 1 1 2 2 2 2 2 3 4 4 3 3 2 2 2 2
1 2 3 4 3 3 3 3 4 5 5 4 4 3 3 4 3 2 2 3 4 5 5 4 4 4 3 3 4 4 3 3 3 3 3 2 2 2 2 2 2 1 1
2 1 2 3 3 3 2 2 3 4 4 3 3 3 3 3 3 3 2 2 2 3 4 4 4 3 3 5 5 5 5 5 7 5 3 2 2 2 2 1 1 1 0
Wind_Direction
204 190 186 180 170 172 172 175 164 159 140 125 122 116 96 12 9 0 345 7 26 55 101 50 66 97 107 133 94 94 86 71 96 86 51 34 45 56 40 348 181 180 192
192 190 184 178 178 182 186 185 181 173 170 159 152 151 145 148 112 360 5 5 3 2 143 146 122 111 109 76 109 118 95 62 72 114 101 33 19 29 32 35 91 196 174
195 195 191 191 186 190 192 193 189 183 179 157 116 89 67 45 35 10 354 349 342 337 359 84 126 108 140 214 219 174 158 159 356 122 136 136 185 347 7 29 33 28 48
197 193 194 195 196 199 191 185 182 179 173 158 149 146 147 153 235 289 335 343 350 345 350 3 76 105 127 250 271 181 165 160 191 55 122 157 160 163 356 8 17 17 26
197 196 198 197 197 191 184 181 172 176 169 168 171 162 156 160 114 24 7 351 351 351 352 346 40 70 79 322 328 42 96 153 177 172 146 148 119 149 166 263 341 12 6
198 200 196 185 188 183 177 172 168 179 174 173 173 172 172 166 145 197 328 344 354 353 348 2 18 26 39 332 316 7 113 183 184 183 166 168 170 176 172 203 235 299 340
192 193 186 185 187 183 182 178 176 185 181 178 179 182 184 178 185 191 208 246 341 334 325 354 10 15 359 348 7 43 341 231 194 204 205 199 201 165 159 163 190 198 346
189 193 192 188 190 188 185 184 185 188 182 184 184 182 182 181 189 192 190 196 213 239 285 45 40 21 17 18 34 42 5 35 304 268 218 196 208 177 172 166 159 164 256
189 190 186 185 188 187 189 189 185 184 184 185 181 180 178 176 184 185 176 183 217 221 70 75 63 37 38 42 62 51 16 33 31 3 0 234 252 180 183 179 177 171 186
181 182 181 184 188 189 189 184 181 184 185 185 188 188 181 181 180 169 170 177 192 144 82 79 90 70 64 78 83 53 21 48 21 22 29 7 2 82 134 169 185 186 178
183 183 183 185 182 174 173 174 175 176 181 184 182 178 172 173 169 176 186 186 170 148 143 131 104 97 86 82 84 57 45 57 32 18 33 7 19 61 77 115 133 143 140
180 176 173 167 164 165 168 173 173 177 182 175 167 176 171 163 170 187 189 171 166 158 150 128 108 109 96 93 95 70 53 69 49 14 29 8 42 64 77 106 111 123 138
161 156 159 167 172 170 171 173 173 180 171 159 163 172 174 175 182 184 173 164 162 149 130 120 119 117 103 94 98 98 73 72 64 30 29 360 42 45 64 102 112 121 123
160 158 166 176 174 171 172 173 177 171 162 162 166 174 184 186 184 172 164 162 155 141 134 132 139 140 121 100 101 110 90 73 57 47 42 35 56 48 100 115 126 127 122
162 169 174 175 167 162 166 171 174 166 163 160 167 177 173 169 163 158 160 154 150 150 146 136 133 138 130 125 134 131 114 97 67 44 34 52 66 67 87 117 134 135 136
176 172 170 168 171 173 172 170 170 168 160 162 168 158 145 150 157 158 152 145 144 143 136 144 150 148 152 124 134 131 117 103 87 53 33 46 53 58 72 93 107 126 141
187 179 179 181 178 178 174 174 169 157 152 158 156 145 142 152 162 162 150 153 156 149 150 159 155 166 165 143 144 137 132 120 107 85 58 60 57 63 74 78 77 74 80
178 184 179 174 181 169 156 149 143 147 149 150 150 151 152 158 159 159 162 163 154 157 164 171 171 163 156 148 152 141 130 116 108 93 84 85 63 68 82 80 71 65 58
176 177 176 164 154 150 145 135 135 138 143 155 160 167 166 163 162 167 170 164 154 157 164 164 167 170 177 151 153 141 132 122 106 85 77 94 89 77 96 99 89 72 57
147 147 143 128 131 142 139 137 146 150 164 174 171 171 170 169 172 177 171 165 162 170 160 148 155 171 185 161 157 156 144 136 123 88 73 81 100 99 107 118 117 103 77
129 127 129 133 145 143 141 146 157 176 182 165 160 163 170 173 173 168 160 154 153 151 146 141 122 163 180 154 154 163 160 159 145 135 117 89 102 106 105 110 117 127 123
106 121 127 129 134 142 146 154 176 178 153 147 155 161 166 170 161 155 157 155 153 151 151 145 136 314 220 145 153 167 173 159 148 159 151 122 129 118 108 106 101 106 115
122 128 136 134 134 142 149 158 174 151 143 148 166 167 160 160 166 168 164 158 161 166 173 174 178 224 263 172 164 170 176 169 154 152 142 132 124 110 98 86 103 117 118
117 128 135 138 143 144 150 159 157 152 151 161 172 166 156 156 161 166 170 172 178 180 181 184 190 200 206 195 169 153 157 151 139 121 108 105 98 89 77 72 88 101 123
92 127 147 150 154 145 146 149 148 148 155 165 170 163 161 161 163 168 178 186 196 191 185 191 191 190 206 213 179 163 167 169 154 124 95 88 92 90 81 75 75 77 98
106 104 144 143 146 144 147 149 149 151 155 166 170 167 166 167 166 158 124 71 124 153 180 186 188 196 191 163 155 155 152 148 143 126 125 132 142 152 156 147 125 109 134